Tracking 18840 objects as of 19-November-2017
HD Live streaming from Space Station
objects crossing your sky now

FENGYUN 1C DEB

Track FENGYUN 1C DEB now!
10-day predictions


NORAD ID: 30943
Int'l Code: 1999-025BAH
Perigee: 855.3 km
Apogee: 929.5 km
Inclination: 99.1 °
Period: 102.7 minutes
Semi major axis: 7263 km
RCS: 0.003 m2 (small)
Launch date: May 10, 1999
Source: People's Republic of China (PRC)
Launch site: Taiyaun Space Center, China (TSC)

Note: This is SATELLITE DEBRIS
aabbcc
Your satellite tracking list
Your tracking list is empty




NASA's NSSDC Master Catalog

Two Line Element Set (TLE):
1 30943U 99025BAH 17322.32547345 -.00000104 +00000-0 -37953-4 0  9990
2 30943 099.0933 348.3591 0051107 345.5781 014.3923 14.02463332544254
Source of the keplerian elements: AFSPC